Wind_Speed
24 23 23 23 23 22 22 22 22 22 21 21 21 20 20 19 19 18 19 20 19 18 16 17 18 19 19 18 18 18 17 17 17 17 16 16 16 16 16 16 17 17 16 16 15 15 14 14 15 15 15 15 15 14 14 14 14 12 11 10 9 7 7 8 6 7 9 8 9 8 8 10 11 11 10 10 10 11 12 12 11 10 9 9 10 9 9 9
26 24 23 22 23 22 22 22 21 21 21 21 21 20 20 20 19 19 19 20 20 18 17 18 19 19 19 19 18 18 17 17 17 17 16 16 16 16 16 16 17 17 17 17 16 16 15 15 15 15 15 16 16 15 15 14 14 12 11 10 9 7 10 10 8 10 11 9 8 8 9 10 11 11 11 11 10 11 12 12 12 11 10 10 11 11 10 10
27 25 24 23 22 22 22 22 22 21 21 21 21 21 20 20 19 19 19 20 20 19 18 19 20 20 19 19 19 18 17 17 16 16 16 16 16 16 16 16 17 17 17 17 17 16 16 15 14 14 15 15 16 15 15 15 14 14 12 9 9 11 13 12 11 12 10 8 8 8 9 10 11 11 11 10 10 13 13 13 13 12 12 13 13 12 11 10
28 26 24 23 22 22 22 22 22 22 22 21 21 21 21 20 20 20 20 20 20 20 19 19 21 20 20 19 19 18 17 16 16 16 16 16 16 16 16 16 16 17 17 17 17 16 15 15 14 14 14 15 15 15 16 16 15 15 14 11 13 15 13 12 12 11 9 10 9 8 9 11 11 11 11 11 12 11 11 13 14 13 14 15 14 12 11 11
29 28 26 25 24 23 23 23 23 23 23 23 22 22 21 21 21 21 21 21 21 20 20 20 21 21 20 20 19 18 17 14 15 17 16 16 16 16 15 15 16 16 17 17 16 16 16 15 14 14 14 14 14 15 17 16 15 15 15 15 15 14 13 12 12 11 10 10 10 9 10 10 10 11 12 13 12 9 10 14 16 16 16 15 12 11 11 12
29 29 27 26 25 24 24 24 24 24 24 23 23 23 22 22 21 21 21 21 22 21 21 21 22 22 21 20 19 19 17 12 14 17 16 16 16 15 16 15 16 16 16 17 16 16 16 15 15 14 14 14 14 15 16 15 15 13 14 16 15 14 14 12 12 12 11 11 11 11 11 10 10 11 12 14 12 13 16 17 17 17 17 14 12 12 12 13
29 29 28 27 26 25 25 24 24 24 24 24 24 23 23 22 22 21 22 22 22 22 21 22 22 22 21 21 19 19 19 14 14 18 17 16 16 15 16 16 16 16 16 16 16 16 16 15 15 15 15 14 15 16 15 15 15 14 15 15 14 14 14 12 12 12 12 12 11 11 11 11 11 11 12 11 10 15 18 17 16 16 16 15 13 14 14 14
29 29 28 27 27 26 25 24 24 24 24 24 24 24 23 23 23 22 22 22 22 22 22 23 23 23 22 21 20 19 20 17 13 16 18 16 16 15 15 16 16 16 16 16 16 16 16 16 16 15 15 16 17 17 16 15 15 17 17 15 14 15 14 13 12 12 12 12 11 12 12 12 11 11 11 9 11 16 17 16 16 15 15 15 14 15 15 15
28 29 28 27 26 26 25 25 24 24 24 24 24 24 24 24 23 23 23 23 23 22 22 23 23 23 22 21 20 18 19 19 14 15 17 16 16 16 16 16 16 16 16 16 16 16 16 16 16 16 16 18 17 16 16 14 14 18 18 15 15 14 13 13 12 12 12 12 12 12 13 14 12 12 9 9 14 17 15 15 15 15 15 16 15 16 16 17
25 26 27 26 26 25 25 24 24 24 24 24 24 24 24 24 24 23 23 23 23 23 23 23 24 24 23 21 20 18 19 20 16 14 15 17 16 16 16 16 16 16 16 16 16 16 17 17 17 17 17 17 16 16 16 16 15 17 16 15 15 14 13 13 12 13 12 12 13 13 14 14 13 15 10 11 16 16 14 14 14 15 16 16 17 18 18 19
22 24 24 25 25 24 24 23 23 24 24 24 24 24 24 24 24 24 24 24 24 24 24 24 24 24 23 22 20 19 19 19 18 15 14 15 16 16 16 16 16 16 16 16 16 16 16 17 16 16 15 15 16 15 16 17 16 15 14 14 14 13 13 13 13 13 12 13 13 13 15 14 15 15 10 12 16 14 14 13 14 15 16 17 18 19 19 19
21 21 22 23 23 23 23 23 23 23 23 23 23 24 24 24 24 24 24 24 24 24 24 25 25 24 23 22 22 21 20 19 19 17 15 14 15 16 16 16 17 17 17 16 16 16 16 16 16 15 14 14 14 13 14 16 15 13 12 11 12 13 13 14 13 12 12 13 12 12 15 15 15 11 7 12 14 14 15 14 14 15 16 17 17 18 19 19
21 20 20 21 21 22 22 22 22 22 22 22 23 23 23 24 24 24 24 24 25 25 25 25 25 25 23 23 24 23 20 19 19 18 16 15 15 15 16 16 16 17 16 16 16 16 16 16 16 16 14 14 14 12 12 14 14 12 12 11 10 10 12 14 12 12 13 11 11 12 14 12 10 9 10 13 14 14 15 14 15 15 16 17 18 18 18 18
22 21 20 20 20 21 21 21 21 21 21 22 22 22 23 23 23 24 24 24 25 25 25 26 25 25 24 24 25 23 21 20 20 18 17 16 16 16 16 16 16 16 16 16 16 16 16 16 15 15 14 13 14 13 10 11 13 11 11 11 9 8 11 15 12 12 13 11 11 12 16 14 9 12 14 13 15 15 15 15 16 17 17 18 18 19 19 19
24 23 22 21 20 20 20 20 20 20 21 21 21 22 22 23 23 24 24 24 25 25 26 26 26 25 25 26 24 24 23 21 19 19 18 17 17 17 16 16 16 16 16 16 16 16 16 16 16 15 15 14 13 13 10 10 12 12 10 8 11 11 9 14 14 12 13 12 12 13 16 13 10 16 17 15 17 17 17 17 18 19 20 20 20 20 20 20
26 25 24 23 22 21 20 20 20 20 20 20 21 21 22 22 23 23 24 24 24 25 26 26 26 26 24 25 25 25 24 22 19 19 18 17 17 18 17 17 16 16 16 16 16 16 16 16 16 15 15 14 13 11 9 9 10 13 12 7 10 13 10 11 13 13 13 14 14 16 17 12 10 17 18 16 18 18 19 19 20 22 22 22 22 21 21 21
27 25 25 24 23 23 22 21 20 20 20 20 20 21 21 22 22 23 23 24 24 25 26 25 25 25 24 25 26 26 24 22 20 18 18 18 18 18 18 17 16 15 15 15 15 16 16 16 15 14 15 15 13 11 10 10 10 12 14 11 9 12 11 9 11 13 14 15 16 18 23 21 16 18 19 18 19 20 21 21 22 24 24 24 23 21 21 20
27 26 26 25 25 24 23 23 22 21 21 20 20 21 21 21 22 23 23 24 24 25 25 25 26 25 23 26 26 24 24 22 21 19 19 18 18 18 17 17 17 16 15 15 16 15 16 16 14 13 15 17 16 15 13 10 9 10 13 13 11 12 13 10 10 14 15 16 18 19 25 26 21 20 21 20 22 23 24 23 24 24 24 23 22 21 20 20
26 26 26 25 25 25 24 24 23 22 22 21 21 21 21 21 22 23 23 24 25 25 24 26 29 25 21 23 24 22 23 23 22 21 20 19 18 18 17 17 16 16 16 15 16 16 16 16 16 16 16 18 18 17 13 10 10 9 11 12 10 9 10 12 16 17 17 17 20 22 25 25 22 21 20 20 23 25 24 23 24 23 22 22 22 21 20 20
26 26 26 26 25 25 25 24 24 24 23 22 22 21 22 23 23 24 25 26 26 28 27 27 29 29 22 19 21 22 23 24 24 22 21 19 18 18 17 17 16 16 16 15 16 18 17 16 18 18 15 15 17 16 15 17 16 13 11 10 10 10 9 12 17 16 16 18 20 21 24 26 25 22 19 19 22 26 26 23 22 21 20 20 21 21 21 20
26 26 26 26 25 25 25 25 25 24 24 23 23 23 24 24 23 23 25 26 26 27 28 26 26 29 27 20 18 22 23 24 25 23 22 21 19 19 18 17 17 17 17 18 18 17 18 18 17 16 17 16 16 16 17 18 17 15 12 10 11 12 12 14 17 15 15 19 20 21 26 27 26 23 20 19 22 25 25 24 23 21 20 20 20 21 21 20
24 25 25 25 25 25 25 25 25 25 25 24 24 24 23 23 22 22 22 24 25 26 27 27 26 26 28 24 20 20 22 24 25 24 24 22 21 20 20 19 18 17 19 19 18 17 17 19 18 19 22 20 17 16 17 17 18 17 14 12 12 12 13 14 15 15 16 18 20 22 27 28 27 25 22 20 22 23 23 24 24 23 22 21 20 20 20 20
23 23 24 24 25 25 25 26 25 25 25 25 25 24 23 23 23 22 21 22 24 26 27 28 28 26 26 26 24 21 21 23 24 25 25 24 23 23 22 21 19 19 21 20 18 17 15 17 20 21 21 18 17 17 18 18 18 18 16 13 12 13 12 10 11 15 16 16 19 22 27 30 28 26 25 22 22 23 23 24 24 25 24 21 20 21 20 20
24 24 23 24 25 25 26 26 26 26 26 25 25 24 24 23 23 22 22 21 23 26 28 28 29 28 26 26 26 24 23 23 24 25 25 24 25 24 23 22 21 22 22 20 19 17 15 17 19 19 18 17 17 18 19 19 16 16 17 16 13 11 12 12 13 16 17 17 20 22 24 29 29 26 28 26 23 23 23 24 25 24 22 21 20 21 20 20
24 25 25 25 24 25 26 26 26 26 26 25 25 24 24 23 23 22 21 19 20 25 27 28 30 30 28 26 26 27 26 25 25 24 24 26 26 25 25 24 23 23 22 21 20 18 18 21 20 18 16 16 17 19 19 18 15 13 15 17 15 12 14 15 14 15 15 15 18 17 13 18 27 27 28 28 26 24 22 22 24 22 20 21 22 22 22 22
24 26 26 26 25 25 26 26 27 26 26 26 25 24 24 23 22 21 19 14 16 23 27 28 29 29 31 31 30 28 25 27 29 26 25 26 26 26 26 26 25 22 20 22 23 22 23 25 23 21 19 16 16 19 21 19 14 11 13 15 14 15 16 15 13 12 10 9 14 15 8 13 29 33 30 29 29 27 24 23 22 20 20 21 23 24 23 22
25 27 28 27 26 26 26 27 26 26 27 25 25 24 23 22 20 19 17 10 12 23 28 28 29 29 32 34 32 28 24 26 29 29 29 27 26 27 24 25 26 24 23 23 22 23 27 25 23 23 23 21 18 17 18 19 15 13 15 16 14 14 14 12 12 11 12 15 19 22 17 14 26 34 30 29 32 29 26 25 20 18 19 22 24 24 22 20
26 27 29 29 27 27 26 26 26 27 26 25 24 24 22 21 19 18 15 7 6 15 25 30 30 29 30 32 32 32 30 28 26 28 31 28 26 27 24 24 26 25 25 24 21 21 24 24 23 24 24 23 22 19 16 15 16 17 17 16 15 14 13 13 12 12 15 18 17 20 18 10 18 33 33 31 34 31 26 24 21 19 21 23 24 21 19 20
29 28 29 31 32 31 28 27 27 27 26 26 24 24 23 21 20 18 11 6 7 11 18 27 31 31 30 30 31 34 35 32 27 26 28 29 28 27 26 26 27 25 25 25 23 21 21 21 21 22 24 24 23 22 17 15 17 17 16 16 16 15 14 11 12 14 14 14 14 16 16 10 14 29 35 34 35 33 28 24 21 19 19 20 20 18 19 20
34 31 28 31 36 36 31 28 27 26 26 26 24 24 24 21 21 18 8 7 14 15 16 20 28 34 32 30 30 32 34 34 31 26 24 28 29 28 27 26 26 26 26 26 27 27 24 22 21 21 22 23 23 22 20 19 20 19 17 15 13 13 13 12 14 15 9 9 12 12 13 13 10 15 27 34 34 31 25 18 16 16 16 18 18 18 19 20
37 36 32 32 33 35 35 30 28 27 25 25 24 23 24 23 22 16 8 15 19 17 20 21 23 30 32 33 32 31 33 34 32 29 25 25 27 29 29 27 25 24 25 28 29 30 29 25 25 26 23 22 21 22 22 23 23 22 16 10 8 9 9 10 11 10 7 6 7 8 9 13 14 12 12 20 26 27 24 20 21 24 25 24 22 22 20 18
34 37 38 37 32 32 34 31 31 31 27 26 23 23 25 22 20 17 16 21 17 12 21 25 23 25 27 31 33 32 33 32 32 32 30 27 26 30 31 30 29 23 21 28 30 28 29 30 29 27 27 26 22 21 22 23 23 20 14 9 6 6 5 7 7 6 7 7 7 8 6 14 31 33 23 23 29 31 31 30 30 30 27 23 22 22 19 16
30 32 36 39 37 35 34 31 32 32 30 28 23 25 27 18 16 27 27 21 11 7 18 25 25 24 23 27 32 33 33 32 32 32 33 32 29 29 29 30 33 28 20 20 24 24 22 26 33 32 31 30 25 23 22 22 22 20 18 15 12 8 4 6 7 5 6 8 10 12 8 16 35 38 32 29 27 26 27 27 24 19 14 14 19 21 20 20
30 29 31 34 37 40 38 34 34 32 31 32 27 28 29 18 20 34 30 20 12 8 12 19 24 24 23 25 28 30 31 31 32 32 32 33 32 32 32 31 33 34 26 16 17 22 18 17 26 32 34 33 31 29 25 23 22 22 21 19 17 15 11 8 5 3 4 4 6 9 8 15 20 18 18 18 17 16 15 15 16 16 17 20 23 22 23 27
30 30 29 30 32 35 37 38 38 35 33 33 31 32 33 28 30 34 28 22 21 17 12 14 20 24 24 27 27 27 29 29 31 32 32 33 34 35 36 35 34 34 32 23 18 21 20 18 22 24 26 30 30 29 29 26 22 22 23 21 21 24 20 12 9 10 8 4 5 10 15 29 32 30 33 31 31 32 28 29 31 30 32 32 28 26 28 29
30 30 30 30 31 30 30 33 37 37 37 35 32 33 37 40 39 34 27 25 26 25 16 12 17 22 24 28 29 27 28 28 29 31 32 34 35 37 37 37 37 36 36 33 25 19 17 18 24 25 23 25 27 26 29 29 23 21 26 29 31 31 24 13 11 16 12 7 14 18 26 45 46 43 48 44 41 41 35 34 31 25 25 25 23 24 24 23
30 30 31 30 30 30 29 28 29 32 36 38 34 33 35 40 43 39 35 33 30 28 23 15 16 20 22 26 28 28 28 28 28 28 30 31 32 35 38 37 37 38 38 36 30 25 20 15 19 24 24 27 27 25 28 32 28 24 25 29 32 30 25 18 9 9 8 7 15 19 27 39 35 31 37 33 28 29 24 21 19 17 20 22 20 20 21 22
30 30 30 30 30 30 29 28 28 28 29 33 35 36 36 38 41 39 39 39 35 33 29 21 17 18 22 23 25 28 28 27 29 28 27 27 28 31 35 37 38 36 36 35 31 27 25 20 16 19 22 23 25 25 27 31 34 33 29 26 23 17 16 19 12 8 9 6 8 17 25 31 36 41 43 34 30 33 32 30 31 32 30 27 23 20 20 22
30 30 30 30 29 30 29 28 29 29 28 30 33 38 43 45 43 38 34 35 35 33 30 24 21 21 23 22 21 26 29 28 30 31 27 25 27 30 32 33 35 35 35 36 35 32 29 23 17 17 21 21 22 28 32 34 35 37 34 28 25 19 14 17 18 15 13 8 7 14 17 24 42 53 49 42 40 39 38 38 37 31 21 15 15 16 16 20
29 31 31 30 30 30 29 28 29 30 32 35 36 37 39 43 44 42 37 34 33 32 31 28 27 27 26 25 23 25 28 28 30 31 28 27 28 30 32 32 32 32 32 32 36 37 32 27 20 15 18 21 26 31 34 36 35 35 36 33 32 31 24 18 19 22 18 9 6 10 10 21 39 39 33 33 33 33 34 33 29 19 12 11 13 16 18 20
29 31 30 29 30 30 29 29 31 32 34 38 39 36 35 36 39 42 41 38 35 34 32 29 28 28 28 28 29 28 27 29 31 32 31 32 33 28 25 28 31 31 27 26 31 34 32 32 27 20 21 26 30 32 31 33 34 33 36 37 37 40 35 20 13 21 25 16 11 8 7 26 45 39 33 37 36 38 41 38 34 27 20 19 17 18 21 21
30 31 30 28 30 31 30 31 33 33 35 39 39 37 35 35 37 38 36 34 35 36 35 32 30 30 28 28 29 29 27 28 31 33 34 36 37 30 21 21 24 25 24 23 26 29 30 32 29 25 30 32 32 34 31 31 34 34 35 37 38 39 39 28 13 13 21 23 25 18 10 33 58 53 49 52 49 49 48 45 45 39 28 25 24 24 25 25
32 32 30 28 29 30 31 33 34 35 37 39 39 37 36 37 38 37 35 32 31 33 35 36 35 34 33 30 29 28 28 28 29 32 35 36 37 35 31 25 20 18 21 21 23 25 26 29 25 22 24 26 27 33 33 31 32 35 38 39 38 36 34 30 21 15 14 16 23 18 10 33 59 55 50 54 51 50 48 46 47 42 37 36 35 32 27 26
34 34 32 30 30 30 31 34 37 38 39 38 36 36 38 39 38 36 36 36 34 32 32 33 33 33 33 32 30 31 30 29 29 31 33 35 36 37 37 35 28 23 22 20 21 21 22 27 25 17 12 12 16 23 29 33 35 36 39 38 39 40 34 28 28 26 21 21 24 16 11 32 55 55 51 53 53 52 50 47 47 46 45 44 40 35 30 31
35 35 35 33 32 32 32 35 37 38 40 39 38 38 39 40 39 37 36 34 34 34 32 31 31 29 29 29 29 31 32 32 31 30 30 32 35 36 36 36 34 32 29 25 22 21 20 23 26 19 12 10 11 10 14 26 34 36 39 40 41 43 40 37 34 26 21 31 37 28 21 36 54 55 53 54 55 55 53 49 48 47 46 46 43 39 37 37
34 34 34 34 34 35 36 36 36 37 39 39 40 40 38 36 38 40 37 31 30 33 33 32 30 29 29 29 27 27 29 33 32 30 32 34 34 34 34 33 32 34 35 33 28 24 21 21 25 27 25 25 25 19 12 15 22 29 34 38 40 43 43 43 37 29 28 34 39 40 39 45 56 56 53 53 53 53 53 50 48 47 46 46 45 43 42 42
35 35 36 36 35 36 39 40 38 38 39 38 39 41 40 37 34 33 34 33 32 34 33 31 31 30 30 31 31 28 27 29 31 33 35 35 34 35 34 31 28 29 34 35 31 27 25 26 29 31 33 36 37 33 24 18 18 20 23 28 32 35 39 42 39 40 42 33 31 45 50 49 54 55 51 53 53 51 51 50 49 49 49 47 45 43 44 45
37 36 37 36 34 36 40 42 41 40 39 37 37 38 40 40 36 31 32 35 35 34 32 31 32 33 32 32 33 32 29 28 30 34 37 37 35 35 34 32 30 28 28 29 30 28 27 31 35 33 34 39 40 39 36 30 26 24 21 23 26 27 32 39 41 44 47 40 39 49 52 48 52 52 50 53 53 49 48 50 51 52 51 49 45 44 45 46
39 38 37 37 37 38 38 39 41 42 41 39 37 36 36 39 40 38 35 33 32 33 33 33 35 36 34 32 32 33 32 31 31 34 37 37 36 35 34 33 33 31 29 28 29 28 27 33 38 36 35 40 44 45 45 41 39 38 32 26 25 26 28 35 39 41 45 46 48 50 50 52 54 52 52 54 53 51 51 53 55 56 54 52 49 48 48 47
42 41 40 38 40 42 40 39 41 44 43 40 38 37 37 38 40 39 37 34 33 34 36 37 38 37 33 31 32 35 36 34 34 34 34 34 36 36 36 36 34 33 33 32 30 29 29 32 36 35 33 39 46 49 48 46 44 43 41 34 31 33 36 38 41 42 42 44 47 48 49 55 58 56 55 56 56 57 56 56 59 60 58 56 54 52 51 49
42 41 40 38 40 43 43 43 41 40 40 41 41 42 41 41 40 33 31 33 34 35 36 38 38 34 30 31 34 34 34 33 34 34 32 33 35 34 34 35 33 31 32 33 31 29 30 31 33 32 28 32 41 42 42 47 44 39 42 45 45 48 50 48 47 47 46 48 48 47 50 57 60 58 56 58 59 61 60 59 62 63 61 59 58 56 54 53
41 39 38 40 41 42 43 45 40 36 39 42 43 43 42 43 40 29 24 28 34 35 34 33 33 30 27 29 32 32 32 32 33 34 33 34 35 34 33 33 31 29 29 29 28 28 29 29 31 29 24 28 37 36 36 39 31 27 38 47 51 55 57 55 54 55 57 57 53 52 55 60 60 58 59 60 61 61 61 61 63 64 63 62 62 61 59 58
Wind_Direction
198 196 194 191 188 187 188 188 188 187 185 184 183 182 181 180 178 177 178 180 181 181 181 181 180 179 178 178 178 177 177 177 178 179 179 181 183 187 190 191 192 193 194 196 197 198 199 199 198 197 197 200 203 205 209 211 212 212 215 220 229 235 240 238 234 236 225 241 260 236 230 235 231 230 224 221 216 213 211 209 212 210 210 206 206 207 203 203
198 197 196 195 192 190 190 191 192 191 190 189 188 186 185 183 181 179 179 181 182 182 182 182 181 180 179 180 179 179 180 180 181 182 181 183 185 186 189 190 192 193 195 196 196 197 196 196 196 196 197 200 204 206 208 211 210 207 208 218 230 229 230 233 231 234 231 241 251 235 232 230 229 229 224 221 218 218 214 213 217 216 217 214 214 219 216 212
198 199 198 197 197 195 194 194 195 195 194 193 192 190 188 186 183 182 181 182 184 183 184 183 182 182 181 181 181 182 183 184 186 186 186 185 186 187 187 190 192 194 196 197 197 197 196 195 194 195 197 202 206 208 213 214 214 213 212 218 234 235 237 240 238 240 241 243 243 239 235 228 229 231 226 222 220 224 220 218 222 223 226 222 221 226 225 225
199 200 200 198 199 198 198 198 197 197 197 197 196 195 192 189 187 185 183 184 186 185 184 184 184 184 183 184 183 184 185 188 191 190 190 188 187 188 187 190 192 195 197 199 199 198 198 195 195 196 196 203 206 209 215 217 218 220 218 217 227 236 243 242 238 243 244 243 243 240 237 232 232 233 231 227 224 231 235 232 228 225 231 232 229 230 233 236
200 201 201 200 200 200 201 201 200 200 199 199 199 198 196 193 191 188 186 186 187 187 186 185 186 186 186 187 185 187 185 192 200 195 194 192 190 190 190 191 193 196 197 199 200 200 199 197 197 198 198 205 205 209 216 217 220 225 227 226 228 236 243 240 238 244 241 241 243 237 235 233 234 236 236 232 224 222 232 236 230 226 233 240 237 233 235 239
202 202 202 203 203 203 203 202 202 202 201 201 200 200 198 197 195 191 189 188 188 188 187 187 188 188 189 189 188 188 185 192 203 198 197 196 194 194 193 194 194 197 198 200 201 201 201 200 200 201 204 208 207 211 216 216 219 225 234 235 234 238 241 241 240 242 241 238 237 234 237 237 239 245 241 236 227 216 224 232 232 231 238 243 238 235 233 233
205 204 205 205 206 206 206 204 204 204 203 203 202 201 200 200 198 195 193 191 190 190 189 189 190 190 192 192 192 190 190 196 201 198 199 199 197 197 196 197 197 198 199 200 202 202 203 203 204 204 207 213 214 216 215 217 218 221 234 235 233 238 240 241 240 240 241 237 235 236 240 242 245 250 243 237 231 227 230 235 235 233 237 240 236 237 237 235
207 207 208 209 209 209 208 207 206 206 206 205 204 203 203 202 200 198 196 194 193 192 192 191 192 193 194 195 194 194 198 202 203 201 202 201 201 200 199 199 199 200 201 201 202 203 205 207 209 208 210 217 219 219 218 221 223 226 236 237 234 238 238 239 238 237 237 234 234 235 240 245 247 250 244 225 221 230 233 234 236 235 237 239 238 240 242 242
208 209 210 211 212 211 210 209 207 208 208 207 206 205 205 204 203 201 198 196 195 194 194 194 194 195 196 198 197 198 204 206 208 206 204 205 204 203 202 202 202 202 202 203 204 204 206 209 211 210 215 221 221 222 220 217 224 229 234 237 235 236 237 237 235 234 233 231 233 234 241 246 247 251 240 208 218 232 236 234 236 238 238 240 241 242 243 245
208 209 209 210 211 212 212 210 209 209 209 209 208 207 206 205 205 203 200 198 196 195 196 196 196 196 198 200 198 203 209 208 210 209 207 208 208 207 205 205 204 204 204 205 205 206 208 209 211 213 218 223 221 224 220 213 220 228 230 233 234 234 235 235 234 233 231 231 234 236 244 249 249 251 236 211 227 239 241 238 236 238 240 242 243 244 244 246
206 208 209 209 209 210 211 212 211 210 210 210 210 208 208 207 205 204 202 200 199 197 197 197 197 197 199 200 199 206 211 208 211 210 207 208 209 210 208 208 206 205 206 206 205 206 208 209 210 210 215 222 221 222 221 217 222 226 225 229 232 233 235 234 233 233 233 235 238 241 249 253 251 251 237 222 231 239 242 243 239 239 242 244 246 248 248 249
205 207 209 209 208 209 209 210 211 211 211 210 211 210 209 208 206 205 203 202 201 199 199 198 198 198 199 202 202 207 209 207 211 212 211 210 209 210 210 210 208 206 207 206 206 204 206 208 208 206 208 214 215 217 221 221 223 224 220 224 232 234 236 237 234 234 235 238 242 250 258 260 257 251 231 229 229 230 239 243 244 245 247 249 249 250 251 252
203 205 208 208 209 209 208 209 209 210 211 210 211 211 210 209 207 206 204 203 202 201 201 200 200 200 200 205 207 208 208 208 210 211 213 212 211 211 210 209 208 207 207 206 205 203 204 206 207 207 208 211 210 211 219 220 219 221 216 215 227 237 242 242 237 236 238 241 242 251 259 265 275 265 238 237 238 236 243 247 250 251 250 251 252 252 253 253
204 204 206 207 208 209 208 209 209 209 209 209 210 210 210 210 208 207 205 204 203 203 202 201 201 201 203 208 209 208 209 210 209 210 211 212 212 211 209 209 209 208 207 205 205 203 203 204 205 206 208 212 212 212 219 217 212 212 216 216 215 223 246 249 244 239 239 240 238 246 255 255 266 264 248 244 247 249 252 251 251 252 251 253 254 255 256 255
207 206 205 206 208 209 209 208 208 209 208 208 208 209 209 208 208 207 206 205 204 203 203 203 202 202 207 211 209 209 211 210 209 209 210 211 212 211 209 207 207 209 207 204 204 203 203 205 206 205 207 210 210 211 213 213 212 211 211 215 217 216 241 256 251 240 239 242 238 243 255 257 257 257 254 252 252 253 254 254 255 257 257 257 257 257 258 258
209 209 208 208 208 208 209 209 208 208 208 208 207 208 208 207 207 206 206 206 204 204 204 204 204 204 210 214 211 210 211 210 209 208 209 210 211 211 210 208 207 209 208 206 204 203 204 206 208 208 208 210 208 202 200 208 216 218 213 209 223 221 231 258 258 246 244 247 243 242 249 252 250 252 253 255 256 256 256 255 256 258 259 259 260 261 261 261
210 210 210 210 209 209 209 209 209 208 208 207 207 208 207 207 207 206 206 205 204 205 204 205 206 206 212 214 212 212 210 210 210 209 210 211 212 213 213 212 210 210 210 209 206 204 206 207 208 211 213 212 204 193 197 208 211 217 219 216 225 223 217 242 262 255 248 249 249 250 253 252 250 255 257 257 257 258 257 256 256 257 260 263 264 265 265 264
209 210 211 211 210 209 209 209 208 207 207 207 207 207 206 206 205 206 205 205 204 205 206 208 206 206 215 217 212 212 211 210 212 211 212 213 213 214 215 216 214 214 215 215 213 208 208 208 205 210 217 215 208 200 204 214 211 214 221 221 230 235 226 228 247 253 251 252 253 254 260 262 259 257 259 260 260 258 256 256 257 259 261 265 267 268 267 266
208 210 211 211 211 209 209 209 208 207 206 205 205 204 205 204 204 205 205 205 205 204 205 210 207 204 215 219 214 212 211 211 213 213 214 214 214 214 215 216 215 215 216 218 220 214 211 211 207 209 215 218 217 207 210 229 219 210 218 220 228 239 237 238 243 250 255 258 259 258 262 267 265 259 255 256 261 262 260 257 258 261 264 267 269 268 266 264
207 209 210 211 211 210 209 209 208 207 205 204 203 202 204 204 204 206 205 205 206 206 206 209 209 207 212 216 212 212 212 212 214 214 215 214 214 214 214 215 214 215 213 214 222 219 215 216 216 217 219 222 223 213 216 229 226 222 226 225 232 238 240 248 250 253 258 260 263 264 265 266 265 262 257 253 256 261 264 265 266 267 267 266 266 266 265 266
207 207 209 210 210 209 208 207 207 206 205 203 202 202 205 205 205 208 208 208 209 211 213 213 212 212 215 214 211 213 213 213 215 214 215 214 213 214 214 214 214 216 215 215 222 222 218 220 220 223 223 220 223 222 224 231 234 236 238 239 247 249 246 253 260 260 260 262 264 267 268 266 266 265 261 257 256 257 264 270 272 273 270 266 264 264 267 269
208 208 208 209 208 208 207 206 205 204 204 204 203 204 207 206 207 210 210 213 215 215 217 216 215 216 217 215 213 212 213 215 216 215 215 214 213 214 214 213 213 217 220 220 224 224 224 226 224 226 227 224 227 231 231 232 236 235 236 243 248 252 254 261 270 268 262 265 268 271 271 268 268 268 263 259 259 260 265 268 272 274 273 271 270 267 265 263
207 208 209 209 207 206 205 204 203 204 204 204 205 205 207 208 209 212 210 214 218 217 217 218 217 218 218 218 216 214 214 216 216 217 217 215 214 215 216 214 213 218 221 220 221 222 226 229 228 231 233 233 233 231 230 232 236 236 234 237 244 252 259 269 281 273 265 268 271 276 279 272 268 269 267 262 260 263 267 270 273 274 275 275 271 266 261 259
207 206 208 210 209 206 205 204 202 203 204 204 205 206 207 209 210 212 213 217 222 220 219 219 219 219 219 219 219 219 220 219 218 218 217 217 217 217 220 218 216 222 224 223 223 222 229 233 234 237 237 234 233 230 232 235 238 244 242 238 243 259 264 262 266 271 276 278 276 283 288 278 274 275 273 268 263 261 264 270 272 273 275 274 267 263 261 259
209 205 206 208 210 209 205 204 203 203 203 204 205 206 208 209 210 213 213 220 229 227 222 221 222 222 221 221 221 221 223 223 222 220 217 218 218 218 220 220 219 224 228 228 227 227 234 236 235 239 239 234 234 234 234 234 235 248 255 249 244 251 260 260 261 274 287 287 281 289 297 281 277 274 272 274 272 267 265 265 267 271 273 270 267 265 260 258
213 207 206 206 209 212 210 207 205 204 204 205 206 206 208 209 210 212 210 220 238 232 224 222 222 222 221 221 222 222 225 227 224 222 220 219 218 218 221 223 222 222 225 228 230 232 235 235 235 238 239 238 237 237 236 234 232 238 250 253 247 247 256 262 267 276 284 277 276 283 288 284 280 272 268 275 276 274 272 268 268 273 271 266 264 261 259 261
217 214 210 207 208 211 214 213 208 207 208 207 206 207 208 209 208 208 207 223 247 234 227 223 221 221 220 221 221 220 223 227 224 222 223 220 219 220 220 225 226 223 226 229 231 236 237 236 237 238 240 242 239 236 239 235 231 233 241 248 247 249 256 264 271 274 274 276 278 278 276 278 276 270 268 274 276 275 274 272 273 271 265 261 259 259 262 266
216 218 215 212 210 210 214 215 213 212 212 209 209 210 210 208 208 204 205 220 232 224 226 224 221 222 222 221 220 219 222 225 222 221 223 222 222 221 218 224 228 228 230 230 233 241 243 239 238 240 242 244 239 235 237 230 223 228 236 242 244 252 264 270 275 277 282 287 282 273 270 258 262 268 270 274 275 273 272 277 280 271 261 260 261 262 263 266
216 215 217 217 215 213 214 215 215 216 215 213 212 213 211 210 207 200 200 224 211 212 223 220 219 221 222 220 219 220 223 225 222 221 222 221 222 222 221 224 228 231 231 231 234 242 245 240 239 242 242 243 240 235 233 225 221 226 234 243 249 257 267 274 278 278 285 287 268 257 260 257 264 269 270 272 274 274 278 283 281 271 263 261 260 262 265 267
223 216 213 217 218 216 215 215 217 217 216 216 214 214 212 209 203 195 191 214 212 216 218 213 215 218 218 217 217 219 222 224 224 222 220 220 221 222 224 227 230 233 233 232 235 238 240 241 239 239 240 242 241 236 234 233 233 237 241 246 254 264 272 276 275 274 281 274 249 234 243 256 267 267 267 270 272 274 280 280 275 274 273 267 265 267 268 265
231 224 217 215 215 216 217 216 217 218 218 216 213 212 210 204 199 195 204 214 215 223 218 212 215 217 217 218 218 219 220 224 225 223 223 221 221 221 221 222 223 227 233 234 236 240 239 239 239 240 240 242 241 236 234 234 236 239 238 235 252 266 270 268 261 254 255 251 207 187 219 244 249 247 252 260 266 273 276 273 276 281 281 276 271 270 265 258
232 230 226 221 215 213 216 216 217 220 220 216 211 208 202 196 198 205 216 218 221 226 215 216 219 217 218 218 220 223 222 223 223 223 226 224 222 224 223 224 222 220 229 234 235 241 241 240 239 240 240 239 238 235 231 230 232 234 225 204 219 240 234 233 225 212 236 239 206 203 217 243 254 259 257 254 263 272 274 274 278 280 281 278 270 263 257 257
230 230 231 230 224 218 215 213 214 217 218 216 212 206 197 189 205 212 213 217 221 207 207 217 221 217 215 212 216 223 222 223 223 221 225 225 225 228 227 228 227 224 229 232 228 233 241 242 239 238 238 235 232 231 229 229 229 229 220 202 202 220 226 229 224 219 242 242 234 233 234 255 264 270 270 266 269 273 272 272 272 268 267 276 278 267 255 264
228 227 228 230 229 227 224 218 214 212 213 214 209 201 195 198 218 216 212 214 217 207 198 210 215 212 210 209 216 222 220 222 225 222 224 224 223 227 227 226 227 227 230 228 223 226 231 241 241 238 238 237 236 234 234 238 238 239 231 214 213 225 232 242 240 242 257 259 241 221 219 251 261 270 275 275 278 273 266 258 253 254 265 281 286 273 259 270
225 226 226 226 228 231 231 228 222 214 209 211 207 195 192 205 218 217 215 215 219 222 205 196 206 206 205 209 216 221 218 220 224 223 224 226 226 229 230 229 228 228 227 225 226 229 230 241 248 245 242 243 242 239 237 237 238 243 234 217 222 230 234 253 275 270 282 319 252 223 241 258 260 265 269 271 273 272 270 267 268 273 278 281 278 265 262 272
223 224 225 225 225 227 229 230 229 222 215 214 209 200 202 213 218 216 214 215 221 224 209 184 195 201 202 209 214 217 217 219 222 221 223 228 231 233 234 235 235 232 229 227 225 223 226 240 246 245 244 243 241 237 234 230 230 236 229 222 230 233 230 242 268 264 267 286 261 247 258 267 271 274 272 271 273 274 275 276 278 281 283 281 270 258 261 271
223 223 223 223 223 224 224 224 226 226 224 224 220 213 215 221 222 221 219 219 222 225 218 202 199 201 205 212 215 217 217 219 221 221 222 227 231 234 235 237 238 238 236 234 231 230 234 243 247 244 241 241 240 235 232 231 230 228 224 226 235 237 232 230 246 259 243 251 261 251 255 266 272 275 274 276 278 278 278 278 278 283 287 286 274 261 263 270
224 225 224 223 222 221 222 221 221 221 222 227 229 227 227 227 226 226 226 225 226 228 225 218 213 211 212 214 217 217 215 217 221 220 220 226 233 237 237 237 239 239 238 237 234 236 239 243 249 244 239 241 240 233 229 230 230 226 225 226 227 228 226 220 218 240 239 232 261 255 253 260 262 262 266 272 275 278 279 278 281 287 291 289 278 267 263 259
226 226 226 225 223 221 219 219 220 219 217 221 226 230 232 233 230 228 228 227 228 231 228 222 218 217 216 216 218 219 216 216 221 221 220 225 234 241 240 240 241 241 239 237 233 235 237 238 243 241 237 234 227 223 223 225 224 223 227 229 227 226 220 215 214 220 236 238 248 259 256 256 261 265 269 272 274 277 280 281 288 295 296 286 273 270 261 246
225 227 227 224 223 222 220 218 219 219 219 221 223 226 231 235 235 232 230 229 229 231 229 222 219 219 220 218 218 221 218 216 222 224 224 228 236 244 245 244 243 242 242 239 235 235 235 236 239 235 227 220 219 225 229 230 229 226 226 228 229 229 224 228 229 221 228 244 245 255 261 258 263 267 271 273 275 278 280 285 291 292 284 276 277 281 272 249
223 226 226 223 223 222 218 217 218 219 221 223 224 226 229 234 237 236 234 230 229 230 229 224 220 221 223 220 219 222 220 218 221 223 224 229 235 241 245 243 242 241 242 238 235 234 233 234 236 232 228 226 230 239 240 237 238 237 235 235 237 236 228 226 235 226 226 233 242 251 277 265 263 263 266 269 273 276 279 285 288 286 282 284 286 288 281 260
222 225 225 221 221 221 217 217 220 221 224 226 225 226 229 233 237 239 237 232 229 232 234 234 231 229 227 225 223 224 223 222 222 222 224 228 231 233 235 236 237 239 242 243 243 243 238 234 232 232 238 241 242 244 242 238 239 239 239 242 243 241 231 222 221 225 223 227 239 247 268 265 262 262 267 270 273 276 279 282 286 286 285 284 287 289 283 268
223 224 223 220 220 219 215 216 219 221 225 229 228 228 229 234 237 239 239 237 233 234 235 237 239 238 237 236 232 229 228 229 228 227 228 230 231 231 232 233 228 230 240 243 247 248 238 230 229 230 239 246 247 247 245 241 237 234 236 239 237 234 230 226 227 236 234 224 232 238 250 262 261 262 268 271 273 276 277 278 282 285 286 287 291 292 281 266
225 224 222 219 219 216 213 217 221 223 226 228 229 230 231 233 236 238 240 239 237 235 235 236 237 237 238 238 236 235 235 235 237 237 235 235 236 235 235 237 235 233 238 240 242 245 235 228 229 227 232 241 242 245 243 237 233 232 235 237 236 235 233 230 231 237 245 242 238 236 240 258 263 266 270 273 276 277 278 280 282 285 287 289 292 291 280 272
226 226 223 219 217 215 216 222 225 227 229 228 228 231 232 233 234 235 238 240 239 238 238 237 237 236 237 236 235 236 237 238 241 244 242 241 241 241 240 240 240 241 241 240 241 246 244 236 230 222 217 224 224 224 231 235 234 233 236 239 240 240 237 235 234 231 237 246 245 241 244 258 265 268 270 274 278 280 281 283 284 286 288 289 291 289 282 281
225 225 223 218 216 217 221 224 224 227 230 229 229 232 232 232 234 235 235 235 237 239 239 239 238 236 234 233 232 233 236 238 239 241 244 243 243 245 246 243 243 243 242 241 244 246 246 244 239 233 233 237 240 243 254 260 250 243 246 247 245 244 242 239 235 230 236 245 247 246 249 257 264 269 272 274 276 279 282 285 285 286 287 289 292 291 287 289
225 224 223 217 214 216 221 223 223 226 228 228 230 233 233 233 234 234 234 232 233 237 238 237 235 232 229 229 229 230 232 235 236 236 241 244 245 248 251 250 250 248 244 242 244 245 243 243 243 241 242 245 248 250 255 269 271 262 262 260 254 253 249 239 234 239 243 242 247 253 254 255 262 271 274 273 272 275 281 284 285 287 287 288 290 290 289 289
225 225 224 220 217 219 223 225 227 228 227 225 228 233 235 235 233 231 233 234 232 234 236 236 236 234 232 230 231 231 228 228 232 235 238 242 245 247 251 252 252 251 249 243 242 243 243 245 246 244 245 249 251 252 252 254 259 261 264 264 260 260 255 246 243 249 248 241 245 256 258 257 263 271 271 268 270 274 278 282 284 285 284 284 285 286 286 287
225 225 223 220 220 224 228 230 229 227 224 222 225 229 232 235 236 234 235 232 228 227 230 233 236 237 236 232 231 231 228 224 228 233 236 238 240 243 247 250 250 249 249 249 248 247 245 247 250 249 250 253 253 254 255 255 255 257 258 259 258 256 258 256 255 257 255 251 254 260 263 264 266 267 265 265 268 272 276 280 282 281 281 281 283 285 286 286
226 226 224 221 221 223 225 226 225 225 224 220 222 227 229 233 237 236 234 232 230 229 228 230 234 236 236 234 231 233 234 232 234 238 240 239 238 240 243 247 250 250 251 253 254 251 248 250 255 254 252 254 255 254 256 256 257 258 258 258 258 256 256 255 256 258 257 257 260 261 262 265 264 261 263 265 266 268 273 277 279 279 280 282 283 285 287 288
226 226 224 222 223 224 224 224 223 223 223 220 223 228 229 232 235 232 231 233 235 235 235 236 237 236 234 236 237 239 241 240 241 244 245 244 243 243 245 246 249 251 252 254 254 252 250 251 255 254 248 252 258 259 259 260 261 260 259 257 256 255 255 254 254 256 256 257 259 256 256 261 262 262 267 268 267 269 273 274 277 278 278 281 284 286 287 287
225 225 224 221 223 224 224 224 222 219 222 225 229 231 231 234 234 228 225 232 235 235 236 239 240 235 233 235 237 240 242 241 242 243 243 244 244 245 244 244 245 246 248 252 252 252 251 250 252 252 246 252 262 266 266 266 263 255 254 256 256 255 257 257 256 257 258 257 255 254 257 264 268 271 273 272 271 273 276 276 277 278 279 282 286 286 285 284
Height
3109 3111 3112 3114 3115 3117 3119 3121 3123 3124 3125 3127 3128 3129 3130 3132 3133 3134 3135 3137 3138 3139 3140 3141 3143 3144 3146 3147 3149 3150 3151 3152 3153 3154 3155 3156 3157 3158 3159 3161 3162 3163 3163 3164 3165 3166 3167 3169 3170 3171 3173 3174 3175 3176 3177 3178 3179 3180 3181 3183 3183 3184 3184 3183 3184 3184 3184 3184 3183 3183 3184 3184 3184 3184 3185 3185 3185 3185 3186 3186 3186 3187 3187 3187 3187 3188 3188 3188
3108 3109 3111 3113 3114 3116 3118 3120 3122 3123 3125 3126 3127 3129 3130 3131 3132 3134 3135 3136 3138 3139 3140 3141 3143 3144 3146 3147 3149 3150 3151 3152 3153 3153 3154 3156 3157 3158 3159 3160 3161 3162 3163 3164 3165 3166 3167 3168 3169 3171 3172 3173 3174 3175 3176 3177 3178 3180 3181 3182 3183 3183 3183 3182 3183 3183 3183 3183 3183 3183 3183 3184 3183 3183 3184 3184 3185 3185 3185 3186 3186 3186 3186 3186 3187 3187 3187 3188
3107 3108 3110 3112 3114 3115 3117 3119 3121 3122 3124 3125 3126 3128 3129 3130 3132 3133 3135 3136 3137 3138 3140 3141 3143 3144 3146 3147 3148 3150 3151 3152 3152 3153 3154 3155 3157 3158 3159 3160 3161 3162 3163 3164 3165 3166 3166 3167 3169 3170 3172 3173 3174 3175 3176 3177 3178 3178 3180 3181 3182 3181 3181 3181 3182 3182 3182 3183 3182 3183 3183 3183 3183 3183 3183 3184 3184 3184 3185 3185 3185 3186 3186 3186 3186 3186 3186 3187
3105 3107 3109 3110 3112 3114 3116 3117 3119 3121 3123 3124 3125 3127 3128 3130 3131 3133 3134 3135 3136 3138 3139 3141 3142 3144 3145 3147 3148 3149 3150 3151 3152 3153 3154 3155 3156 3157 3158 3159 3160 3161 3162 3163 3164 3165 3166 3167 3168 3169 3171 3172 3173 3175 3175 3176 3177 3177 3178 3180 3179 3179 3180 3180 3181 3181 3182 3182 3182 3182 3182 3182 3182 3182 3183 3183 3183 3184 3185 3185 3185 3185 3185 3185 3185 3186 3186 3186
3104 3105 3107 3109 3110 3112 3114 3116 3118 3119 3121 3123 3124 3126 3127 3129 3130 3132 3133 3134 3136 3137 3139 3140 3142 3144 3145 3146 3148 3149 3150 3152 3152 3153 3154 3155 3156 3157 3158 3159 3160 3161 3162 3163 3164 3165 3166 3167 3168 3169 3170 3171 3173 3174 3174 3175 3176 3177 3177 3177 3178 3179 3179 3179 3180 3181 3181 3182 3182 3182 3182 3182 3182 3182 3182 3182 3183 3184 3184 3183 3184 3184 3184 3184 3185 3185 3185 3186
3102 3104 3106 3107 3109 3110 3112 3114 3116 3118 3119 3121 3123 3125 3126 3128 3129 3131 3132 3134 3135 3137 3138 3140 3141 3143 3145 3146 3147 3148 3150 3150 3151 3152 3153 3154 3155 3156 3157 3158 3159 3160 3161 3162 3163 3165 3166 3167 3168 3169 3170 3171 3172 3173 3173 3174 3175 3176 3176 3176 3177 3178 3178 3179 3179 3180 3180 3181 3181 3181 3181 3181 3181 3181 3181 3181 3182 3182 3182 3182 3182 3183 3183 3183 3184 3184 3185 3185
3101 3103 3104 3106 3108 3109 3111 3112 3114 3116 3118 3120 3122 3123 3125 3127 3128 3130 3131 3133 3134 3136 3138 3139 3141 3142 3144 3145 3147 3148 3149 3149 3150 3151 3152 3153 3154 3155 3156 3157 3159 3160 3161 3162 3163 3164 3165 3166 3167 3168 3169 3170 3171 3172 3173 3174 3175 3175 3175 3175 3176 3176 3177 3178 3178 3179 3179 3180 3180 3180 3180 3180 3180 3180 3180 3180 3181 3181 3180 3181 3181 3182 3182 3183 3183 3183 3184 3184
3099 3101 3103 3105 3106 3108 3109 3111 3113 3115 3117 3118 3120 3122 3124 3125 3127 3129 3130 3132 3133 3135 3137 3138 3140 3142 3143 3145 3146 3147 3148 3149 3150 3151 3152 3153 3154 3155 3156 3157 3158 3159 3160 3161 3162 3163 3164 3166 3166 3168 3169 3169 3170 3171 3172 3173 3174 3174 3173 3174 3175 3175 3176 3177 3177 3178 3178 3179 3180 3180 3180 3180 3179 3179 3179 3179 3180 3179 3179 3180 3180 3181 3181 3182 3182 3182 3182 3183
3098 3100 3102 3104 3105 3107 3108 3110 3112 3113 3115 3117 3119 3120 3122 3124 3126 3127 3129 3131 3133 3134 3136 3138 3139 3141 3143 3144 3145 3147 3147 3148 3149 3150 3151 3152 3153 3154 3155 3156 3157 3158 3159 3160 3161 3163 3164 3165 3166 3167 3167 3168 3169 3170 3171 3172 3173 3172 3172 3173 3174 3174 3175 3176 3176 3177 3178 3178 3179 3179 3179 3178 3178 3178 3178 3178 3178 3177 3178 3179 3179 3180 3180 3181 3181 3181 3181 3182
3097 3099 3101 3103 3105 3106 3108 3109 3111 3112 3114 3116 3118 3119 3121 3123 3124 3126 3128 3130 3132 3133 3135 3137 3139 3140 3142 3143 3145 3146 3146 3148 3149 3150 3150 3151 3152 3153 3154 3155 3156 3157 3158 3159 3160 3161 3163 3164 3165 3166 3166 3167 3168 3169 3170 3171 3171 3171 3172 3172 3173 3174 3174 3175 3175 3176 3177 3177 3178 3178 3178 3177 3177 3177 3177 3177 3177 3177 3177 3178 3178 3179 3179 3179 3180 3180 3180 3180
3096 3098 3100 3101 3103 3105 3107 3108 3110 3111 3113 3115 3117 3118 3120 3121 3123 3125 3127 3128 3130 3132 3134 3136 3138 3139 3141 3143 3144 3145 3145 3147 3148 3149 3150 3151 3151 3152 3153 3154 3155 3156 3157 3158 3159 3161 3162 3163 3164 3165 3166 3167 3168 3168 3169 3170 3170 3170 3171 3172 3172 3173 3173 3174 3175 3175 3176 3176 3177 3177 3177 3176 3175 3175 3176 3176 3176 3176 3176 3177 3177 3177 3178 3178 3178 3178 3178 3179
3095 3097 3099 3100 3102 3104 3106 3107 3109 3110 3112 3114 3116 3118 3119 3120 3122 3124 3125 3127 3129 3131 3133 3134 3136 3138 3140 3142 3142 3143 3144 3146 3147 3148 3149 3150 3151 3152 3153 3154 3155 3155 3156 3157 3158 3160 3161 3162 3163 3164 3165 3166 3167 3168 3168 3169 3169 3170 3171 3171 3172 3172 3173 3173 3174 3175 3175 3175 3176 3176 3176 3175 3174 3174 3174 3174 3174 3175 3175 3175 3176 3176 3176 3176 3176 3177 3177 3177
3094 3096 3097 3099 3101 3103 3104 3106 3107 3109 3111 3113 3115 3116 3118 3119 3121 3122 3124 3126 3128 3130 3131 3133 3135 3137 3139 3140 3140 3142 3143 3145 3146 3147 3148 3149 3150 3151 3152 3153 3154 3155 3156 3157 3158 3159 3160 3161 3162 3163 3164 3165 3166 3167 3167 3168 3169 3169 3170 3171 3171 3172 3172 3172 3173 3174 3174 3175 3175 3176 3175 3174 3174 3173 3173 3173 3173 3174 3174 3174 3174 3174 3175 3174 3175 3175 3175 3175
3093 3094 3096 3098 3100 3101 3103 3104 3106 3107 3109 3111 3113 3115 3117 3118 3120 3121 3123 3125 3127 3129 3130 3132 3134 3136 3137 3138 3139 3141 3142 3144 3145 3146 3147 3148 3149 3150 3151 3152 3153 3154 3155 3156 3157 3158 3159 3160 3161 3163 3164 3165 3166 3166 3167 3167 3168 3168 3169 3170 3171 3172 3172 3171 3172 3173 3173 3174 3174 3175 3173 3172 3174 3172 3171 3172 3172 3172 3173 3173 3173 3173 3173 3173 3173 3173 3173 3173
3091 3093 3094 3096 3098 3100 3101 3103 3104 3106 3108 3110 3112 3114 3115 3117 3119 3121 3122 3124 3126 3128 3129 3131 3133 3135 3136 3136 3138 3140 3141 3142 3144 3145 3146 3147 3149 3150 3150 3151 3152 3153 3154 3155 3156 3157 3158 3159 3161 3162 3163 3164 3165 3166 3167 3167 3167 3168 3169 3170 3170 3171 3171 3170 3171 3172 3172 3173 3173 3174 3172 3171 3172 3171 3170 3171 3171 3171 3171 3171 3171 3171 3171 3171 3171 3171 3171 3171
3089 3091 3093 3094 3096 3098 3100 3102 3103 3105 3107 3109 3110 3112 3114 3116 3118 3120 3121 3123 3125 3127 3129 3130 3132 3134 3135 3135 3137 3138 3139 3141 3143 3144 3145 3146 3148 3149 3150 3151 3152 3153 3154 3155 3156 3157 3158 3159 3160 3161 3162 3164 3165 3166 3167 3167 3167 3167 3168 3169 3169 3169 3170 3169 3170 3171 3171 3171 3171 3172 3170 3169 3171 3169 3169 3169 3169 3169 3169 3170 3170 3169 3169 3169 3169 3169 3169 3169
3087 3089 3091 3093 3094 3096 3098 3100 3101 3103 3105 3107 3109 3111 3113 3115 3117 3119 3120 3122 3124 3126 3128 3129 3131 3133 3133 3133 3134 3136 3138 3140 3142 3143 3144 3145 3147 3148 3149 3150 3151 3152 3153 3154 3155 3156 3157 3158 3159 3161 3162 3163 3164 3166 3167 3167 3166 3166 3166 3168 3168 3168 3169 3170 3169 3169 3170 3170 3169 3169 3167 3167 3168 3168 3167 3167 3167 3167 3167 3167 3167 3167 3167 3166 3167 3167 3167 3167
3086 3087 3089 3091 3093 3094 3096 3098 3100 3102 3104 3106 3107 3109 3111 3113 3115 3117 3119 3121 3123 3125 3127 3128 3129 3131 3131 3131 3133 3135 3137 3139 3141 3142 3143 3144 3145 3147 3148 3149 3150 3151 3153 3154 3154 3155 3156 3157 3159 3160 3161 3162 3163 3164 3165 3165 3165 3166 3165 3166 3167 3167 3168 3169 3168 3167 3168 3168 3167 3167 3165 3164 3166 3166 3166 3166 3165 3164 3164 3165 3165 3165 3165 3165 3165 3165 3165 3165
3084 3086 3087 3089 3091 3093 3095 3096 3098 3100 3102 3104 3106 3108 3110 3112 3114 3116 3117 3119 3121 3123 3124 3125 3126 3129 3128 3129 3133 3135 3136 3138 3139 3140 3142 3143 3144 3146 3147 3148 3149 3150 3152 3153 3154 3154 3156 3157 3158 3158 3159 3160 3161 3162 3164 3164 3163 3164 3164 3165 3166 3166 3167 3167 3166 3166 3167 3166 3165 3165 3163 3162 3163 3164 3164 3164 3163 3161 3161 3162 3162 3163 3163 3163 3163 3162 3163 3162
3082 3084 3086 3088 3089 3091 3093 3095 3097 3099 3101 3102 3105 3107 3109 3110 3112 3113 3115 3117 3118 3120 3121 3122 3124 3127 3127 3129 3132 3133 3135 3136 3137 3139 3140 3142 3143 3144 3146 3147 3148 3149 3151 3152 3152 3153 3155 3156 3156 3157 3159 3160 3160 3161 3162 3162 3162 3162 3163 3164 3164 3165 3166 3165 3165 3165 3165 3164 3163 3162 3161 3160 3160 3161 3162 3162 3161 3159 3159 3160 3160 3161 3161 3161 3160 3160 3160 3160
3080 3082 3084 3086 3088 3090 3091 3093 3096 3098 3099 3101 3103 3105 3107 3109 3111 3112 3113 3115 3117 3119 3120 3122 3124 3125 3127 3129 3131 3132 3133 3134 3136 3138 3139 3140 3142 3143 3144 3146 3147 3148 3149 3150 3151 3152 3154 3154 3155 3157 3157 3158 3159 3160 3160 3160 3161 3161 3162 3162 3163 3164 3164 3164 3163 3164 3164 3163 3161 3161 3159 3157 3157 3158 3159 3160 3159 3157 3158 3158 3158 3158 3159 3158 3158 3158 3158 3158
3079 3080 3082 3084 3086 3088 3090 3092 3094 3096 3098 3100 3102 3104 3106 3108 3109 3111 3113 3115 3116 3118 3119 3121 3123 3124 3126 3128 3129 3130 3132 3133 3134 3136 3137 3139 3140 3142 3143 3144 3146 3147 3148 3149 3150 3152 3152 3153 3154 3155 3155 3156 3157 3158 3158 3159 3159 3159 3160 3161 3162 3162 3162 3162 3162 3162 3162 3161 3160 3159 3156 3154 3155 3156 3156 3157 3156 3155 3156 3156 3156 3156 3156 3156 3156 3156 3156 3156
3077 3079 3081 3083 3085 3087 3088 3090 3093 3095 3097 3099 3101 3103 3105 3107 3108 3110 3112 3113 3114 3116 3117 3119 3121 3122 3124 3126 3127 3129 3130 3131 3132 3134 3135 3137 3139 3140 3141 3143 3145 3145 3146 3148 3149 3150 3151 3151 3152 3153 3154 3155 3156 3156 3157 3157 3157 3158 3159 3160 3161 3161 3162 3162 3161 3160 3160 3160 3158 3157 3154 3151 3152 3153 3153 3154 3154 3154 3154 3154 3153 3153 3153 3154 3154 3153 3153 3153
3075 3078 3080 3081 3083 3085 3087 3089 3091 3093 3095 3098 3100 3102 3103 3105 3107 3109 3111 3112 3113 3114 3115 3117 3119 3120 3122 3124 3126 3127 3128 3129 3130 3131 3134 3135 3137 3138 3139 3142 3143 3143 3145 3146 3148 3149 3150 3150 3151 3151 3153 3154 3154 3155 3155 3156 3157 3157 3157 3159 3160 3160 3160 3160 3160 3159 3158 3158 3157 3156 3154 3149 3149 3151 3150 3151 3151 3152 3152 3152 3151 3151 3151 3152 3151 3151 3151 3151
3073 3075 3077 3080 3082 3084 3086 3088 3090 3092 3094 3096 3098 3100 3102 3104 3106 3108 3110 3111 3111 3111 3113 3115 3116 3118 3120 3122 3123 3124 3126 3127 3128 3130 3132 3133 3134 3136 3137 3139 3140 3142 3143 3145 3147 3148 3148 3148 3149 3150 3151 3152 3153 3153 3154 3155 3156 3156 3156 3157 3158 3159 3158 3158 3159 3158 3158 3157 3155 3156 3154 3148 3147 3147 3147 3148 3148 3149 3150 3149 3149 3150 3150 3149 3149 3149 3149 3149
3071 3073 3075 3078 3080 3082 3085 3086 3088 3090 3092 3094 3096 3098 3100 3102 3104 3107 3109 3110 3109 3108 3110 3112 3113 3115 3116 3118 3119 3122 3124 3124 3125 3128 3129 3130 3132 3134 3135 3137 3138 3140 3142 3143 3145 3144 3144 3145 3147 3149 3149 3151 3151 3151 3152 3153 3155 3156 3155 3155 3157 3157 3157 3157 3158 3158 3158 3157 3154 3155 3155 3150 3144 3143 3144 3146 3145 3146 3147 3146 3147 3148 3147 3147 3146 3146 3146 3147
3069 3071 3073 3076 3078 3081 3082 3085 3087 3089 3090 3092 3095 3097 3099 3101 3103 3105 3108 3110 3106 3104 3107 3109 3110 3111 3112 3114 3117 3121 3121 3120 3123 3125 3126 3129 3130 3132 3134 3135 3136 3138 3139 3141 3142 3141 3141 3144 3146 3147 3148 3149 3149 3150 3150 3152 3153 3153 3153 3154 3155 3155 3156 3156 3157 3157 3157 3156 3154 3153 3155 3153 3145 3139 3141 3143 3142 3142 3143 3144 3145 3145 3145 3144 3143 3143 3144 3145
3067 3069 3071 3073 3076 3078 3081 3083 3085 3086 3088 3091 3093 3096 3097 3100 3102 3104 3107 3108 3102 3100 3103 3105 3107 3108 3109 3112 3115 3117 3116 3117 3121 3122 3124 3127 3129 3130 3133 3133 3134 3136 3138 3140 3140 3139 3140 3142 3144 3145 3146 3146 3147 3149 3149 3150 3151 3151 3151 3153 3153 3154 3155 3155 3156 3156 3155 3155 3152 3149 3152 3152 3143 3137 3139 3139 3138 3139 3140 3141 3142 3142 3141 3141 3141 3142 3143 3143
3065 3067 3069 3071 3073 3076 3079 3081 3082 3084 3087 3089 3092 3094 3096 3099 3101 3103 3106 3104 3098 3097 3099 3100 3103 3105 3106 3109 3112 3113 3114 3115 3118 3120 3123 3125 3126 3128 3130 3130 3133 3134 3136 3138 3138 3137 3138 3140 3142 3143 3143 3144 3145 3147 3148 3149 3149 3149 3150 3151 3152 3153 3153 3155 3155 3155 3156 3153 3148 3147 3150 3148 3138 3133 3137 3136 3134 3136 3138 3139 3139 3138 3139 3139 3139 3140 3140 3140
3062 3064 3066 3068 3070 3073 3076 3078 3080 3082 3085 3087 3090 3092 3094 3097 3098 3101 3103 3100 3095 3094 3096 3097 3099 3100 3103 3106 3108 3110 3112 3113 3116 3119 3121 3122 3124 3126 3128 3129 3131 3132 3134 3135 3135 3134 3136 3138 3140 3140 3140 3141 3143 3145 3147 3147 3147 3148 3149 3150 3152 3152 3153 3154 3153 3154 3155 3150 3144 3144 3147 3148 3137 3128 3131 3133 3132 3134 3136 3136 3136 3136 3137 3137 3137 3138 3137 3137
3059 3061 3063 3065 3067 3070 3073 3076 3078 3080 3082 3085 3087 3090 3092 3094 3096 3097 3096 3094 3092 3092 3093 3094 3095 3097 3100 3103 3105 3107 3109 3111 3114 3117 3118 3120 3122 3123 3125 3127 3128 3130 3131 3132 3132 3132 3134 3136 3137 3137 3139 3139 3141 3143 3144 3145 3145 3146 3148 3150 3152 3152 3152 3153 3152 3154 3153 3145 3142 3142 3145 3147 3135 3124 3127 3130 3131 3133 3134 3134 3134 3133 3134 3134 3135 3135 3135 3135
3055 3057 3059 3062 3064 3067 3069 3073 3075 3078 3080 3082 3085 3087 3090 3092 3093 3091 3089 3090 3091 3089 3089 3092 3093 3095 3099 3101 3103 3105 3107 3109 3112 3114 3116 3118 3119 3119 3121 3123 3125 3128 3129 3128 3129 3129 3131 3133 3134 3135 3136 3137 3139 3140 3141 3142 3143 3145 3148 3150 3152 3151 3151 3150 3148 3149 3147 3142 3141 3141 3144 3141 3126 3118 3124 3126 3128 3131 3131 3131 3131 3131 3131 3131 3131 3132 3132 3133
3052 3054 3056 3058 3061 3063 3066 3070 3073 3075 3077 3080 3082 3084 3087 3088 3086 3084 3085 3087 3087 3085 3086 3089 3091 3094 3097 3099 3101 3102 3105 3107 3109 3112 3113 3115 3117 3117 3119 3121 3122 3124 3125 3125 3127 3127 3129 3129 3130 3131 3131 3133 3136 3137 3138 3140 3141 3143 3145 3148 3149 3148 3148 3146 3143 3143 3142 3140 3138 3140 3143 3134 3118 3115 3120 3121 3124 3127 3127 3128 3128 3128 3129 3129 3129 3129 3130 3130
3049 3051 3053 3055 3057 3059 3062 3066 3069 3072 3074 3076 3078 3080 3082 3082 3079 3080 3083 3084 3083 3084 3085 3087 3090 3093 3095 3097 3098 3100 3103 3104 3106 3109 3110 3111 3113 3113 3115 3117 3118 3121 3123 3124 3124 3124 3126 3124 3124 3126 3127 3130 3133 3135 3137 3138 3140 3141 3142 3145 3145 3143 3143 3141 3139 3139 3138 3137 3136 3139 3138 3125 3115 3115 3116 3118 3121 3123 3124 3126 3126 3126 3127 3127 3128 3128 3128 3128
3046 3048 3050 3052 3054 3055 3058 3061 3064 3068 3071 3072 3074 3074 3075 3075 3075 3078 3081 3081 3082 3083 3085 3086 3089 3091 3093 3094 3095 3097 3100 3101 3103 3106 3107 3108 3109 3109 3111 3113 3115 3118 3120 3121 3121 3121 3122 3120 3120 3123 3125 3127 3130 3133 3135 3137 3137 3138 3140 3142 3140 3138 3140 3139 3138 3137 3137 3137 3134 3133 3127 3115 3112 3113 3113 3117 3119 3119 3122 3123 3123 3124 3124 3125 3125 3125 3126 3125
3044 3045 3047 3049 3051 3053 3056 3058 3061 3064 3066 3068 3069 3068 3067 3069 3070 3073 3077 3078 3079 3081 3083 3086 3087 3089 3091 3092 3093 3095 3098 3099 3100 3103 3104 3105 3106 3106 3108 3109 3111 3113 3115 3116 3117 3118 3119 3117 3117 3121 3123 3124 3127 3130 3132 3133 3134 3134 3135 3135 3133 3135 3138 3139 3137 3135 3138 3137 3129 3126 3119 3110 3110 3109 3106 3113 3115 3115 3118 3118 3119 3121 3121 3121 3122 3122 3123 3122
3041 3042 3044 3046 3048 3051 3053 3056 3059 3061 3062 3064 3064 3063 3064 3065 3066 3070 3073 3075 3077 3079 3082 3084 3085 3087 3088 3089 3091 3093 3095 3096 3098 3100 3101 3102 3102 3102 3104 3105 3107 3109 3110 3113 3115 3115 3116 3116 3115 3117 3119 3121 3123 3126 3127 3128 3130 3130 3130 3130 3131 3133 3135 3137 3137 3135 3136 3133 3124 3121 3117 3111 3111 3105 3100 3107 3111 3112 3115 3115 3116 3117 3118 3119 3119 3120 3121 3120
3038 3040 3041 3043 3046 3048 3051 3053 3056 3058 3059 3059 3060 3061 3062 3061 3063 3067 3071 3073 3075 3077 3079 3081 3083 3084 3085 3087 3088 3090 3092 3094 3095 3097 3098 3099 3098 3098 3100 3102 3103 3105 3107 3112 3113 3112 3113 3114 3113 3113 3115 3118 3121 3123 3123 3124 3125 3125 3125 3126 3129 3131 3132 3134 3135 3132 3131 3128 3121 3117 3114 3110 3108 3101 3099 3106 3108 3109 3111 3112 3112 3113 3114 3115 3115 3116 3117 3116
3035 3037 3038 3040 3043 3046 3048 3050 3052 3055 3056 3055 3055 3057 3057 3057 3061 3065 3068 3071 3073 3074 3076 3078 3080 3081 3082 3084 3086 3087 3089 3091 3091 3093 3095 3096 3095 3095 3097 3099 3100 3102 3105 3108 3109 3109 3110 3112 3111 3110 3112 3115 3117 3117 3117 3117 3119 3121 3123 3125 3126 3127 3128 3128 3127 3126 3125 3124 3119 3115 3110 3105 3101 3098 3100 3104 3105 3106 3107 3107 3109 3110 3110 3111 3112 3113 3114 3113
3032 3033 3035 3037 3040 3042 3045 3048 3049 3050 3051 3050 3051 3052 3053 3054 3057 3060 3064 3067 3070 3071 3073 3074 3076 3078 3079 3081 3082 3083 3086 3088 3089 3091 3092 3093 3093 3093 3094 3096 3098 3099 3102 3104 3105 3106 3108 3109 3108 3108 3109 3110 3110 3110 3111 3112 3115 3119 3120 3121 3121 3122 3124 3124 3122 3121 3121 3119 3116 3114 3107 3098 3096 3099 3100 3101 3102 3103 3104 3104 3106 3108 3108 3109 3110 3111 3111 3111
3029 3029 3031 3034 3036 3039 3042 3044 3045 3046 3046 3046 3048 3050 3052 3052 3052 3055 3059 3064 3067 3068 3069 3071 3073 3075 3076 3078 3079 3080 3083 3085 3085 3087 3088 3089 3090 3091 3092 3093 3094 3096 3099 3100 3101 3103 3104 3105 3105 3105 3105 3105 3105 3106 3109 3111 3112 3114 3115 3115 3115 3116 3118 3120 3117 3116 3117 3115 3113 3112 3105 3094 3093 3097 3098 3098 3099 3100 3100 3102 3103 3105 3107 3107 3108 3109 3109 3109
3025 3025 3028 3031 3032 3035 3038 3039 3040 3042 3042 3042 3044 3048 3049 3049 3049 3052 3056 3060 3063 3064 3066 3067 3069 3071 3073 3074 3076 3078 3080 3081 3082 3083 3084 3085 3086 3089 3089 3090 3092 3094 3096 3097 3097 3099 3101 3101 3102 3101 3100 3100 3102 3104 3106 3108 3108 3110 3110 3110 3111 3111 3112 3113 3112 3111 3113 3112 3111 3112 3106 3092 3087 3093 3095 3094 3096 3097 3098 3099 3099 3101 3103 3104 3105 3106 3106 3106
3021 3022 3025 3027 3029 3032 3034 3035 3037 3038 3037 3038 3042 3045 3046 3046 3048 3049 3052 3055 3058 3060 3061 3063 3065 3067 3069 3072 3074 3075 3077 3078 3079 3080 3081 3081 3083 3085 3085 3087 3090 3092 3092 3094 3094 3096 3098 3098 3098 3099 3099 3098 3099 3101 3103 3105 3106 3105 3104 3106 3107 3107 3108 3109 3110 3110 3109 3108 3109 3109 3104 3091 3083 3088 3093 3091 3092 3094 3095 3095 3096 3097 3099 3100 3101 3102 3102 3102
3017 3018 3021 3023 3025 3028 3029 3030 3031 3033 3033 3036 3039 3041 3042 3043 3045 3046 3048 3051 3054 3056 3057 3059 3061 3063 3065 3068 3070 3072 3074 3075 3075 3077 3079 3079 3080 3081 3083 3084 3087 3089 3090 3091 3092 3093 3094 3094 3095 3096 3097 3097 3096 3097 3097 3098 3099 3099 3099 3102 3103 3104 3106 3106 3107 3109 3106 3104 3106 3103 3098 3091 3084 3084 3088 3088 3087 3089 3091 3092 3093 3094 3094 3096 3097 3098 3098 3098
3012 3014 3016 3019 3021 3023 3024 3025 3027 3029 3030 3033 3035 3036 3038 3039 3041 3043 3045 3048 3050 3052 3054 3056 3058 3060 3063 3065 3067 3068 3070 3071 3072 3073 3075 3076 3077 3078 3080 3081 3083 3086 3087 3088 3089 3091 3090 3090 3091 3092 3092 3091 3089 3090 3089 3090 3093 3095 3096 3098 3098 3100 3102 3102 3104 3105 3101 3100 3100 3096 3092 3091 3085 3082 3084 3085 3083 3083 3086 3088 3089 3090 3090 3092 3093 3094 3094 3093
3008 3009 3012 3015 3017 3018 3019 3021 3024 3025 3027 3029 3031 3032 3034 3035 3037 3040 3042 3044 3046 3048 3051 3052 3055 3057 3059 3061 3063 3064 3065 3067 3069 3070 3070 3071 3072 3073 3075 3077 3080 3082 3083 3084 3086 3087 3087 3087 3087 3087 3086 3084 3084 3085 3087 3088 3090 3091 3092 3092 3094 3095 3096 3099 3100 3098 3096 3096 3092 3089 3090 3089 3082 3079 3081 3082 3081 3080 3082 3084 3085 3085 3086 3086 3088 3089 3088 3088
3003 3005 3007 3010 3012 3013 3015 3017 3019 3021 3023 3025 3026 3027 3029 3031 3034 3036 3038 3041 3043 3044 3047 3049 3051 3053 3055 3057 3059 3060 3061 3063 3065 3066 3066 3067 3069 3069 3070 3073 3076 3077 3079 3081 3082 3083 3083 3083 3083 3083 3082 3081 3081 3083 3086 3087 3087 3087 3088 3089 3090 3091 3092 3094 3092 3090 3094 3093 3084 3083 3088 3084 3079 3079 3079 3077 3076 3078 3080 3080 3080 3080 3080 3081 3083 3084 3083 3083
2998 3000 3003 3006 3007 3008 3009 3011 3014 3016 3019 3021 3022 3024 3025 3028 3030 3031 3033 3036 3039 3041 3043 3044 3046 3047 3050 3053 3055 3056 3058 3060 3061 3061 3062 3064 3065 3066 3067 3069 3072 3073 3075 3077 3078 3079 3079 3078 3078 3080 3079 3078 3078 3079 3082 3084 3084 3084 3086 3086 3087 3088 3088 3088 3086 3086 3088 3085 3078 3080 3084 3079 3077 3080 3076 3072 3072 3075 3077 3076 3075 3075 3075 3076 3078 3078 3078 3078
2994 2996 2999 3001 3002 3003 3006 3009 3011 3013 3015 3017 3019 3019 3021 3023 3025 3027 3029 3032 3034 3036 3039 3040 3041 3043 3046 3049 3051 3052 3053 3055 3056 3057 3059 3061 3062 3063 3064 3066 3067 3069 3071 3073 3074 3075 3075 3074 3075 3077 3076 3075 3075 3075 3076 3079 3080 3080 3082 3083 3084 3083 3083 3082 3081 3081 3081 3078 3077 3080 3079 3074 3074 3075 3071 3068 3070 3072 3072 3071 3069 3069 3070 3071 3073 3073 3073 3074
2989 2991 2994 2996 2997 2999 3002 3004 3006 3008 3010 3013 3014 3015 3017 3019 3020 3023 3025 3027 3028 3031 3033 3035 3037 3040 3042 3045 3046 3046 3048 3051 3052 3054 3056 3058 3059 3060 3061 3062 3063 3066 3067 3069 3070 3071 3071 3071 3072 3073 3073 3071 3070 3070 3071 3073 3075 3075 3076 3079 3079 3078 3077 3075 3074 3075 3076 3075 3075 3077 3074 3068 3065 3067 3068 3067 3066 3066 3068 3067 3065 3064 3065 3066 3067 3067 3068 3068
2985 2987 2990 2992 2993 2995 2997 2999 3002 3004 3005 3007 3008 3010 3012 3014 3016 3020 3022 3023 3025 3027 3029 3031 3034 3038 3040 3041 3042 3043 3046 3049 3050 3052 3054 3054 3055 3057 3058 3059 3061 3062 3063 3064 3065 3066 3068 3068 3068 3070 3069 3066 3066 3067 3067 3068 3070 3070 3071 3071 3071 3069 3068 3068 3069 3070 3070 3069 3069 3070 3067 3061 3059 3063 3067 3065 3061 3062 3063 3063 3062 3060 3060 3061 3060 3061 3062 3062
2980 2982 2985 2987 2989 2991 2992 2995 2997 2998 2999 3001 3003 3006 3008 3010 3014 3018 3019 3020 3021 3024 3026 3028 3032 3035 3036 3037 3038 3040 3042 3044 3045 3047 3048 3049 3050 3052 3053 3055 3056 3057 3059 3060 3061 3062 3063 3064 3065 3066 3064 3062 3062 3063 3064 3065 3064 3062 3062 3061 3061 3061 3062 3063 3064 3063 3062 3062 3063 3061 3058 3058 3060 3062 3062 3058 3057 3058 3059 3059 3057 3056 3056 3056 3055 3055 3056 3056